Regional Weather Roundup
Issued by NWS Midland/Odessa, TX

Skip options and go directly to product.
Home | Oldest Version | Previous Version | Current Version | All | Text Only | Save Text | Print | Product List | Glossary Off

Skip product version selection by date and time.   

324
ASUS44 KMAF 302210
RWRMAF
MIDLAND AREA WEATHER ROUNDUP
NATIONAL WEATHER SERVICE MIDLAND TX
500 PM CDT SAT MAY 30 2015

...IN SOUTHWEST TEXAS AND SOUTHEAST NEW MEXICO...

CITY           SKY/WX    TMP DP  RH WIND       PRES   REMARKS
ALPINE         SUNNY     77  53  43 E17       30.24S
ANDREWS        PTSUNNY   73  58  60 E7        30.18F
ARTESIA        SUNNY     77  55  47 E12       30.17F
BIG SPRING     CLOUDY    72  61  69 NE12      30.20S
CARLSBAD       MOSUNNY   81  55  40 NE14      30.15F
DRYDEN           N/A     80  58  46 E8G18     30.09F
FORT STOCKTON  MOSUNNY   78  58  49 NE14      30.14F
GUAD PASS      MOSUNNY   72  51  47 E22G31    30.23F
HOBBS          PTSUNNY   73  55  53 NE12      30.21F
MARFA          MOSUNNY   79  52  38 NE18G31   30.20S
MIDLAND AIRPK  MOSUNNY   76  60  58 NE14      30.17F
MIDLAND INTL   PTSUNNY   78  60  53 E14       30.16S
ODESSA         MOSUNNY   78  57  48 NE10      30.17S
PECOS          SUNNY     81  56  41 CALM      30.12S
PRESIDIO       FAIR      90  51  26 E15       30.02F
SEMINOLE       PTSUNNY   76  57  52 E12       30.20F
SNYDER         CLOUDY    67  60  77 NE7       30.19S
WINK           MOSUNNY   81  56  42 NE9       30.13F
$$
...OTHER STATIONS IN TEXAS...

CITY           SKY/WX    TMP DP  RH WIND       PRES   REMARKS
ABILENE        CLOUDY    69  62  78 N7        30.16S
AMARILLO       SUNNY     68  51  54 NE8       30.25S
AUSTIN         CLOUDY    76  70  82 SW14      30.03R THUNDER
BROWNSVILLE    PTSUNNY   85  75  72 SE16      29.95F
CORPUS CHRISTI CLOUDY    83  72  69 SE8       29.98S
DALLAS FTW     PTSUNNY   75  64  68 N14       30.05F
DEL RIO          N/A    N/A N/A N/A MISG      30.05S
EL PASO        MOSUNNY   88  43  20 E9        30.08F
HOUSTON INT    TSTM      71  68  90 N12       29.98R
LUBBOCK        CLOUDY    72  59  63 E12       30.21S
SAN ANGELO     CLOUDY    74  64  71 NE13      30.11F
SAN ANTONIO    TSTM      69  66  90 NE9       30.08F FOG
WACO           MOSUNNY   80  66  62 N9        30.02F
WICHITA FALLS  NOT AVBL
$$
...OTHER LOCATIONS IN NEW MEXICO...

CITY           SKY/WX    TMP DP  RH WIND       PRES   REMARKS
ALAMAGORDO     MOSUNNY   86  41  20 S7G16     30.10F
ALBUQUERQUE    MOSUNNY   79  37  22 CALM      30.20F
CANNON AFB     LGT RAIN  70  56  60 E7        30.24F
CLOVIS         CLOUDY    68  54  60 E7        30.24S
HOLLOMAN AFB   MOSUNNY   88  45  22 NW12      30.08F
ROSWELL        MOSUNNY   78  55  44 E14       30.17F
RUIDOSO        PTSUNNY   63  50  63 SE15      30.33R
SANTA FE       MOSUNNY   75  36  24 W7G16     30.25F
TRUTH OR CONSE SUNNY     86  36  16 SE12G18   30.11F
TUCUMCARI      PTSUNNY   71  51  49 E8        30.22F
$$

USA.gov is the U.S. government's official web portal to all federal, state and local government web resources and services.